Location: Franzen
(48.6167°N, 15.3833°E)
Time: 09:22:42
(UTC+00:00)

Altair - Pass Details

Date: 04 August 2021
Orbit: 1501 x 1682 km, 47.2° (Epoch: 20 September)

Event Time Altitude Azimuth Distance (km) Brightness Sun altitude
Rises 04:50:19 0° 285° (WNW) 4,677 9.5 10.5°
Reaches altitude 10° 04:53:25 10° 282° (WNW) 3,679 9.0 11.0°
Maximum altitude 05:02:24 61° 206° (SSW) 1,676 7.8 12.4°
Drops below altitude 10° 05:11:22 10° 129° (SE) 3,659 10.2 13.9°
Sets 05:14:26 0° 126° (SE) 4,650 10.7 14.4°
